| time (UTC) | temp F | wind direction | speed knots | gust knots | rain 1hr in | rain 24hr in | rain mn in | humidity % | barometer mb |
| 20260508002650 | 66 | 241 | 3.5 | 5.2 | 0.00 | 0.00 | 0.00 | 44 | 1013.9 |
| 20260508002149 | 67 | 182 | 0.9 | 1.7 | 0.00 | 0.00 | 0.00 | 44 | 1013.7 |
| 20260508001643 | 67 | 214 | 1.7 | 2.6 | 0.00 | 0.00 | 0.00 | 43 | 1014.0 |
| 20260508001140 | 67 | 299 | 0.9 | 1.7 | 0.00 | 0.00 | 0.00 | 44 | 1014.0 |
| 20260508000636 | 68 | 233 | 0.9 | 1.7 | 0.00 | 0.00 | 0.00 | 42 | 1013.9 |
| 20260508000133 | 68 | 232 | 3.5 | 5.2 | 0.00 | 0.00 | 0.00 | 42 | 1014.1 |
| 20260507235630 | 68 | 359 | 0.0 | 0.0 | 0.00 | 0.00 | 0.00 | 42 | 1013.9 |
| 20260507235128 | 68 | 29 | 0.9 | 1.7 | 0.00 | 0.00 | 0.00 | 43 | 1014.0 |
| 20260507234624 | 68 | 181 | 3.5 | 5.2 | 0.00 | 0.00 | 0.00 | 41 | 1013.8 |
| 20260507234120 | 68 | 359 | 0.9 | 1.7 | 0.00 | 0.00 | 0.00 | 42 | 1013.9 |
| 20260507233617 | 68 | 344 | 1.7 | 2.6 | 0.00 | 0.00 | 0.00 | 42 | 1013.9 |
| 20260507233116 | 68 | 236 | 3.5 | 3.5 | 0.00 | 0.00 | 0.00 | 42 | 1013.9 |
| 20260507232612 | 68 | 201 | 3.5 | 7.0 | 0.00 | 0.00 | 0.00 | 41 | 1013.9 |
| 20260507232110 | 69 | 141 | 6.1 | 7.8 | 0.00 | 0.00 | 0.00 | 40 | 1014.1 |
| 20260507231606 | 69 | 212 | 5.2 | 8.7 | 0.00 | 0.00 | 0.00 | 41 | 1014.0 |
| 20260507231103 | 69 | 329 | 1.7 | 2.6 | 0.00 | 0.00 | 0.00 | 41 | 1014.0 |
| 20260507230559 | 69 | 319 | 1.7 | 1.7 | 0.00 | 0.00 | 0.00 | 41 | 1014.2 |
| 20260507230056 | 69 | 318 | 0.9 | 1.7 | 0.00 | 0.00 | 0.00 | 42 | 1014.4 |
| 20260507225551 | 68 | 349 | 1.7 | 2.6 | 0.00 | 0.00 | 0.00 | 42 | 1014.2 |
| 20260507225048 | 69 | 129 | 1.7 | 2.6 | 0.00 | 0.00 | 0.00 | 41 | 1014.5 |
| 20260507224543 | 68 | 348 | 1.7 | 2.6 | 0.00 | 0.00 | 0.00 | 42 | 1014.5 |
| 20260507224040 | 69 | 207 | 3.5 | 3.5 | 0.00 | 0.00 | 0.00 | 41 | 1014.5 |
| 20260507223536 | 69 | 134 | 3.5 | 5.2 | 0.00 | 0.00 | 0.00 | 40 | 1014.5 |
| 20260507223033 | 69 | 225 | 4.3 | 6.1 | 0.00 | 0.00 | 0.00 | 40 | 1014.8 |
| 20260507222531 | 69 | 3 | 3.5 | 6.1 | 0.00 | 0.00 | 0.00 | 42 | 1014.7 |
| 20260507222027 | 70 | 216 | 4.3 | 6.1 | 0.00 | 0.00 | 0.00 | 38 | 1014.8 |
| 20260507221523 | 70 | 199 | 1.7 | 2.6 | 0.00 | 0.00 | 0.00 | 40 | 1014.7 |
| 20260507221020 | 71 | 193 | 4.3 | 6.1 | 0.00 | 0.00 | 0.00 | 40 | 1014.7 |
| 20260507220518 | 70 | 4 | 0.0 | 0.0 | 0.00 | 0.00 | 0.00 | 41 | 1014.8 |
| 20260507220015 | 69 | 184 | 4.3 | 7.0 | 0.00 | 0.00 | 0.00 | 41 | 1014.6 |
| 20260507215511 | 69 | 270 | 4.3 | 6.1 | 0.00 | 0.00 | 0.00 | 40 | 1014.8 |
| 20260507215009 | 70 | 123 | 0.9 | 1.7 | 0.00 | 0.00 | 0.00 | 41 | 1015.0 |
| 20260507214505 | 70 | 329 | 1.7 | 1.7 | 0.00 | 0.00 | 0.00 | 42 | 1015.0 |
| 20260507214001 | 69 | 174 | 2.6 | 2.6 | 0.00 | 0.00 | 0.00 | 42 | 1015.1 |
| 20260507213458 | 69 | 210 | 3.5 | 6.1 | 0.00 | 0.00 | 0.00 | 40 | 1015.1 |
| 20260507212955 | 68 | 238 | 4.3 | 6.1 | 0.00 | 0.00 | 0.00 | 41 | 1015.2 |
| 20260507212450 | 68 | 151 | 5.2 | 6.1 | 0.00 | 0.00 | 0.00 | 40 | 1015.0 |
| 20260507211948 | 70 | 215 | 6.1 | 7.8 | 0.00 | 0.00 | 0.00 | 39 | 1015.1 |
| 20260507211444 | 70 | 211 | 5.2 | 7.8 | 0.00 | 0.00 | 0.00 | 42 | 1015.2 |
| 20260507210941 | 69 | 322 | 0.9 | 1.7 | 0.00 | 0.00 | 0.00 | 43 | 1015.3 |
| 20260507210438 | 69 | 12 | 2.6 | 3.5 | 0.00 | 0.00 | 0.00 | 41 | 1015.4 |
| 20260507205935 | 69 | 238 | 3.5 | 5.2 | 0.00 | 0.00 | 0.00 | 42 | 1015.6 |
| 20260507205432 | 69 | 335 | 2.6 | 5.2 | 0.00 | 0.00 | 0.00 | 40 | 1015.3 |
| 20260507204928 | 69 | 309 | 1.7 | 1.7 | 0.00 | 0.00 | 0.00 | 41 | 1015.7 |
| 20260507204424 | 68 | 233 | 2.6 | 3.5 | 0.00 | 0.00 | 0.00 | 43 | 1015.8 |
| 20260507203922 | 68 | 290 | 3.5 | 5.2 | 0.00 | 0.00 | 0.00 | 42 | 1015.9 |
| 20260507203420 | 67 | 164 | 3.5 | 6.1 | 0.00 | 0.00 | 0.00 | 43 | 1015.9 |
| 20260507202916 | 67 | 204 | 9.6 | 12.2 | 0.00 | 0.00 | 0.00 | 43 | 1016.2 |
| 20260507202413 | 68 | 96 | 3.5 | 5.2 | 0.00 | 0.00 | 0.00 | 41 | 1016.4 |
| 20260507201908 | 69 | 172 | 6.1 | 8.7 | 0.00 | 0.00 | 0.00 | 41 | 1016.3 |
| 20260507201404 | 68 | 206 | 2.6 | 6.1 | 0.00 | 0.00 | 0.00 | 43 | 1016.1 |
| 20260507200901 | 69 | 185 | 2.6 | 7.0 | 0.00 | 0.00 | 0.00 | 42 | 1016.4 |
| 20260507200356 | 68 | 317 | 1.7 | 2.6 | 0.00 | 0.00 | 0.00 | 43 | 1016.3 |
| 20260507195852 | 68 | 220 | 1.7 | 2.6 | 0.00 | 0.00 | 0.00 | 42 | 1016.6 |
| 20260507195350 | 69 | 263 | 5.2 | 7.8 | 0.00 | 0.00 | 0.00 | 41 | 1016.7 |
| 20260507194847 | 67 | 2 | 1.7 | 2.6 | 0.00 | 0.00 | 0.00 | 42 | 1016.7 |
| 20260507194344 | 68 | 346 | 5.2 | 7.8 | 0.00 | 0.00 | 0.00 | 41 | 1017.0 |
| 20260507193840 | 68 | 234 | 2.6 | 3.5 | 0.00 | 0.00 | 0.00 | 41 | 1016.8 |
| 20260507193337 | 69 | 235 | 1.7 | 1.7 | 0.00 | 0.00 | 0.00 | 42 | 1016.9 |
| 20260507192833 | 68 | 1 | 1.7 | 1.7 | 0.00 | 0.00 | 0.00 | 43 | 1016.9 |
| 20260507192330 | 68 | 198 | 2.6 | 3.5 | 0.00 | 0.00 | 0.00 | 42 | 1016.9 |
| 20260507191826 | 67 | 189 | 6.1 | 8.7 | 0.00 | 0.00 | 0.00 | 41 | 1017.0 |
| 20260507191322 | 66 | 306 | 5.2 | 7.0 | 0.00 | 0.00 | 0.00 | 42 | 1017.0 |
| 20260507190820 | 68 | 222 | 1.7 | 1.7 | 0.00 | 0.00 | 0.00 | 41 | 1016.9 |
| 20260507190318 | 67 | 279 | 1.7 | 1.7 | 0.00 | 0.00 | 0.00 | 43 | 1017.0 |
| 20260507185817 | 68 | 72 | 1.7 | 3.5 | 0.00 | 0.00 | 0.00 | 40 | 1017.0 |
| 20260507185313 | 67 | 171 | 1.7 | 2.6 | 0.00 | 0.00 | 0.00 | 41 | 1017.3 |
| 20260507184810 | 67 | 213 | 2.6 | 3.5 | 0.00 | 0.00 | 0.00 | 42 | 1017.2 |
| 20260507184308 | 68 | 310 | 0.9 | 0.9 | 0.00 | 0.00 | 0.00 | 43 | 1017.3 |
| 20260507183805 | 67 | 317 | 2.6 | 2.6 | 0.00 | 0.00 | 0.00 | 44 | 1017.3 |
| 20260507183302 | 67 | 268 | 3.5 | 5.2 | 0.00 | 0.00 | 0.00 | 42 | 1017.4 |
| 20260507182759 | 67 | 248 | 2.6 | 3.5 | 0.00 | 0.00 | 0.00 | 40 | 1017.4 |
| 20260507182254 | 67 | 344 | 1.7 | 2.6 | 0.00 | 0.00 | 0.00 | 43 | 1017.5 |
| 20260507181751 | 66 | 272 | 0.0 | 0.9 | 0.00 | 0.00 | 0.00 | 44 | 1017.3 |
| 20260507181247 | 67 | 172 | 3.5 | 5.2 | 0.00 | 0.00 | 0.00 | 41 | 1017.6 |
| 20260507180744 | 65 | 7 | 2.6 | 2.6 | 0.00 | 0.00 | 0.00 | 43 | 1017.5 |
| 20260507180241 | 65 | 180 | 5.2 | 6.1 | 0.00 | 0.00 | 0.00 | 40 | 1017.3 |
| 20260507175736 | 66 | 206 | 7.8 | 8.7 | 0.00 | 0.00 | 0.00 | 40 | 1017.9 |
| 20260507175234 | 66 | 250 | 3.5 | 5.2 | 0.00 | 0.00 | 0.00 | 41 | 1017.8 |
| 20260507174731 | 65 | 303 | 1.7 | 1.7 | 0.00 | 0.00 | 0.00 | 43 | 1017.9 |
| 20260507174229 | 65 | 146 | 4.3 | 6.1 | 0.00 | 0.00 | 0.00 | 41 | 1018.0 |
| 20260507173726 | 64 | 179 | 3.5 | 5.2 | 0.00 | 0.00 | 0.00 | 41 | 1018.0 |
| 20260507173223 | 65 | 180 | 3.5 | 3.5 | 0.00 | 0.00 | 0.00 | 44 | 1018.1 |
| 20260507172719 | 66 | 187 | 3.5 | 6.1 | 0.00 | 0.00 | 0.00 | 39 | 1018.4 |
| 20260507172216 | 66 | 7 | 1.7 | 1.7 | 0.00 | 0.00 | 0.00 | 42 | 1018.3 |
| 20260507171716 | 65 | 355 | 1.7 | 1.7 | 0.00 | 0.00 | 0.00 | 42 | 1018.6 |
| 20260507171214 | 65 | 231 | 3.5 | 7.0 | 0.00 | 0.00 | 0.00 | 41 | 1018.7 |
| 20260507170711 | 65 | 19 | 0.9 | 1.7 | 0.00 | 0.00 | 0.00 | 42 | 1018.6 |
| 20260507170208 | 65 | 64 | 2.6 | 3.5 | 0.00 | 0.00 | 0.00 | 41 | 1018.7 |
| 20260507165703 | 65 | 199 | 3.5 | 5.2 | 0.00 | 0.00 | 0.00 | 41 | 1018.9 |
| 20260507165200 | 64 | 261 | 2.6 | 2.6 | 0.00 | 0.00 | 0.00 | 40 | 1019.0 |
| 20260507164656 | 64 | 240 | 5.2 | 6.1 | 0.00 | 0.00 | 0.00 | 40 | 1019.0 |
| 20260507164153 | 64 | 184 | 4.3 | 5.2 | 0.00 | 0.00 | 0.00 | 42 | 1019.2 |
| 20260507163650 | 64 | 188 | 3.5 | 5.2 | 0.00 | 0.00 | 0.00 | 39 | 1019.0 |
| 20260507163148 | 64 | 165 | 2.6 | 3.5 | 0.00 | 0.00 | 0.00 | 42 | 1019.1 |
| 20260507162644 | 63 | 210 | 1.7 | 2.6 | 0.00 | 0.00 | 0.00 | 41 | 1018.9 |
| 20260507162140 | 63 | 230 | 5.2 | 7.0 | 0.00 | 0.00 | 0.00 | 40 | 1019.1 |
| 20260507161636 | 64 | 324 | 0.9 | 1.7 | 0.00 | 0.00 | 0.00 | 40 | 1019.0 |
| 20260507161133 | 63 | 231 | 0.9 | 1.7 | 0.00 | 0.00 | 0.00 | 41 | 1019.2 |
| 20260507160629 | 63 | 17 | 0.9 | 0.9 | 0.00 | 0.00 | 0.00 | 42 | 1018.9 |
| 20260507160126 | 64 | 191 | 4.3 | 6.1 | 0.00 | 0.00 | 0.00 | 40 | 1019.1 |
| 20260507155622 | 63 | 13 | 0.9 | 0.9 | 0.00 | 0.00 | 0.00 | 43 | 1019.1 |
| 20260507155119 | 63 | 59 | 1.7 | 5.2 | 0.00 | 0.00 | 0.00 | 40 | 1019.1 |
| 20260507154615 | 62 | 125 | 0.9 | 1.7 | 0.00 | 0.00 | 0.00 | 43 | 1019.0 |
| 20260507154112 | 62 | 212 | 3.5 | 3.5 | 0.00 | 0.00 | 0.00 | 42 | 1019.2 |
| 20260507153604 | 63 | 301 | 1.7 | 1.7 | 0.00 | 0.00 | 0.00 | 40 | 1019.1 |
| 20260507153101 | 62 | 334 | 1.7 | 2.6 | 0.00 | 0.00 | 0.00 | 43 | 1019.3 |
| 20260507152556 | 62 | 84 | 0.9 | 1.7 | 0.00 | 0.00 | 0.00 | 42 | 1019.2 |
| 20260507152052 | 61 | 15 | 0.0 | 0.9 | 0.00 | 0.00 | 0.00 | 43 | 1019.3 |
| 20260507151548 | 61 | 220 | 3.5 | 5.2 | 0.00 | 0.00 | 0.00 | 43 | 1019.4 |
| 20260507151045 | 61 | 203 | 4.3 | 7.0 | 0.00 | 0.00 | 0.00 | 44 | 1019.6 |
| 20260507150542 | 62 | 18 | 0.9 | 1.7 | 0.00 | 0.00 | 0.00 | 42 | 1019.5 |
| 20260507150039 | 61 | 58 | 0.9 | 0.9 | 0.00 | 0.00 | 0.00 | 43 | 1019.6 |
| 20260507145533 | 60 | 206 | 1.7 | 2.6 | 0.00 | 0.00 | 0.00 | 44 | 1019.5 |
| 20260507145032 | 60 | 224 | 4.3 | 5.2 | 0.00 | 0.00 | 0.00 | 43 | 1019.5 |
| 20260507144528 | 61 | 336 | 0.9 | 1.7 | 0.00 | 0.00 | 0.00 | 43 | 1019.4 |
| 20260507144026 | 60 | 31 | 0.9 | 0.9 | 0.00 | 0.00 | 0.00 | 45 | 1019.5 |
| 20260507143523 | 60 | 34 | 2.6 | 2.6 | 0.00 | 0.00 | 0.00 | 46 | 1019.4 |
| 20260507143020 | 59 | 111 | 1.7 | 2.6 | 0.00 | 0.00 | 0.00 | 47 | 1019.5 |
| 20260507142515 | 59 | 74 | 2.6 | 3.5 | 0.00 | 0.00 | 0.00 | 49 | 1019.4 |
| 20260507142013 | 59 | 244 | 3.5 | 3.5 | 0.00 | 0.00 | 0.00 | 48 | 1019.6 |
| 20260507141508 | 59 | 187 | 4.3 | 5.2 | 0.00 | 0.00 | 0.00 | 49 | 1019.5 |
| 20260507141007 | 58 | 212 | 3.5 | 3.5 | 0.00 | 0.00 | 0.00 | 49 | 1019.5 |
| 20260507140502 | 57 | 89 | 1.7 | 1.7 | 0.00 | 0.00 | 0.00 | 50 | 1019.6 |
| 20260507135959 | 57 | 111 | 3.5 | 5.2 | 0.00 | 0.00 | 0.00 | 49 | 1019.7 |
| 20260507135456 | 57 | 87 | 2.6 | 2.6 | 0.00 | 0.00 | 0.00 | 48 | 1019.6 |
| 20260507134953 | 56 | 53 | 1.7 | 2.6 | 0.00 | 0.00 | 0.00 | 48 | 1019.8 |
| 20260507134450 | 56 | 166 | 2.6 | 2.6 | 0.00 | 0.00 | 0.00 | 50 | 1019.6 |
| 20260507133946 | 55 | 97 | 2.6 | 3.5 | 0.00 | 0.00 | 0.00 | 50 | 1019.6 |
| 20260507133442 | 56 | 195 | 3.5 | 3.5 | 0.00 | 0.00 | 0.00 | 51 | 1019.7 |
| 20260507132941 | 55 | 56 | 1.7 | 1.7 | 0.00 | 0.00 | 0.00 | 52 | 1019.7 |
| 20260507132436 | 55 | 96 | 2.6 | 2.6 | 0.00 | 0.00 | 0.00 | 52 | 1019.6 |
| 20260507131933 | 54 | 178 | 1.7 | 2.6 | 0.00 | 0.00 | 0.00 | 52 | 1019.7 |
| 20260507131430 | 54 | 185 | 3.5 | 5.2 | 0.00 | 0.00 | 0.00 | 52 | 1019.7 |
| 20260507130927 | 53 | 142 | 1.7 | 1.7 | 0.00 | 0.00 | 0.00 | 54 | 1019.7 |
| 20260507130424 | 53 | 352 | 1.7 | 1.7 | 0.00 | 0.00 | 0.00 | 55 | 1019.5 |
| 20260507125923 | 53 | 197 | 1.7 | 2.6 | 0.00 | 0.00 | 0.00 | 55 | 1019.5 |
| 20260507125420 | 52 | 91 | 1.7 | 1.7 | 0.00 | 0.00 | 0.00 | 56 | 1019.5 |
| 20260507124918 | 51 | 139 | 1.7 | 2.6 | 0.00 | 0.00 | 0.00 | 59 | 1019.4 |
| 20260507124413 | 51 | 80 | 1.7 | 1.7 | 0.00 | 0.00 | 0.00 | 58 | 1019.3 |
| 20260507123912 | 50 | 98 | 1.7 | 1.7 | 0.00 | 0.00 | 0.00 | 62 | 1019.2 |
| 20260507123409 | 49 | 135 | 1.7 | 2.6 | 0.00 | 0.00 | 0.00 | 63 | 1019.4 |
| 20260507122906 | 49 | 105 | 2.6 | 2.6 | 0.00 | 0.00 | 0.00 | 65 | 1019.4 |
| 20260507122400 | 48 | 133 | 1.7 | 1.7 | 0.00 | 0.00 | 0.00 | 68 | 1019.3 |
| 20260507121857 | 47 | 109 | 1.7 | 2.6 | 0.00 | 0.00 | 0.00 | 72 | 1019.3 |
| 20260507121352 | 46 | 81 | 1.7 | 1.7 | 0.00 | 0.00 | 0.00 | 74 | 1019.4 |
| 20260507120850 | 45 | 43 | 0.0 | 0.9 | 0.00 | 0.00 | 0.00 | 78 | 1019.5 |
| 20260507120346 | 44 | 42 | 0.0 | 0.0 | 0.00 | 0.00 | 0.00 | 81 | 1019.3 |
| 20260507115842 | 44 | 27 | 0.0 | 0.0 | 0.00 | 0.00 | 0.00 | 83 | 1019.2 |
| 20260507115338 | 43 | 27 | 0.0 | 0.0 | 0.00 | 0.00 | 0.00 | 84 | 1019.3 |
| 20260507114834 | 43 | 27 | 0.0 | 0.0 | 0.00 | 0.00 | 0.00 | 85 | 1019.3 |
| 20260507114331 | 43 | 27 | 0.0 | 0.0 | 0.00 | 0.00 | 0.00 | 84 | 1019.1 |
| 20260507113829 | 43 | 27 | 0.0 | 0.0 | 0.00 | 0.00 | 0.00 | 84 | 1019.2 |
| 20260507113325 | 43 | 27 | 0.0 | 0.0 | 0.00 | 0.00 | 0.00 | 83 | 1019.3 |
| 20260507112823 | 43 | 27 | 0.0 | 0.0 | 0.00 | 0.00 | 0.00 | 82 | 1019.0 |
| 20260507112320 | 44 | 27 | 0.0 | 0.0 | 0.00 | 0.00 | 0.00 | 81 | 1019.1 |
| 20260507111818 | 44 | 27 | 0.0 | 0.0 | 0.00 | 0.00 | 0.00 | 80 | 1018.9 |
| 20260507111314 | 44 | 28 | 0.0 | 0.0 | 0.00 | 0.00 | 0.00 | 79 | 1019.0 |
| 20260507110810 | 45 | 27 | 0.0 | 0.0 | 0.00 | 0.00 | 0.00 | 80 | 1019.1 |
| 20260507110307 | 45 | 22 | 0.0 | 0.0 | 0.00 | 0.00 | 0.00 | 78 | 1019.1 |
| 20260507105804 | 46 | 28 | 0.0 | 0.0 | 0.00 | 0.00 | 0.00 | 77 | 1019.1 |
| 20260507105300 | 46 | 36 | 0.0 | 0.0 | 0.00 | 0.00 | 0.00 | 76 | 1018.9 |
| 20260507104757 | 46 | 49 | 0.9 | 0.9 | 0.00 | 0.00 | 0.00 | 75 | 1018.9 |
| 20260507104253 | 47 | 46 | 0.0 | 0.0 | 0.00 | 0.00 | 0.00 | 74 | 1018.8 |
| 20260507103750 | 47 | 50 | 0.9 | 0.9 | 0.00 | 0.00 | 0.00 | 74 | 1018.9 |
| 20260507103246 | 47 | 91 | 1.7 | 1.7 | 0.00 | 0.00 | 0.00 | 75 | 1018.7 |
| 20260507102742 | 47 | 53 | 0.9 | 0.9 | 0.00 | 0.00 | 0.00 | 75 | 1018.8 |
| 20260507102239 | 46 | 54 | 0.9 | 0.9 | 0.00 | 0.00 | 0.00 | 76 | 1018.7 |
| 20260507101735 | 46 | 54 | 0.9 | 0.9 | 0.00 | 0.00 | 0.00 | 77 | 1018.8 |
| 20260507101231 | 46 | 112 | 2.6 | 2.6 | 0.00 | 0.00 | 0.00 | 78 | 1018.7 |
| 20260507100728 | 46 | 59 | 0.9 | 1.7 | 0.00 | 0.00 | 0.00 | 84 | 1018.8 |
| 20260507100226 | 45 | 44 | 0.9 | 0.9 | 0.00 | 0.00 | 0.00 | 88 | 1018.9 |
| 20260507095724 | 45 | 23 | 0.0 | 0.0 | 0.00 | 0.00 | 0.00 | 90 | 1018.9 |
| 20260507095220 | 45 | 23 | 0.0 | 0.0 | 0.00 | 0.00 | 0.00 | 91 | 1018.9 |
| 20260507094717 | 45 | 19 | 0.0 | 0.0 | 0.00 | 0.00 | 0.00 | 91 | 1019.0 |
| 20260507094214 | 45 | 19 | 0.0 | 0.0 | 0.00 | 0.00 | 0.00 | 91 | 1019.0 |
| 20260507093711 | 45 | 19 | 0.0 | 0.0 | 0.00 | 0.00 | 0.00 | 92 | 1018.8 |
| 20260507093210 | 45 | 24 | 0.0 | 0.0 | 0.00 | 0.00 | 0.00 | 92 | 1018.9 |
| 20260507092706 | 45 | 24 | 0.0 | 0.0 | 0.00 | 0.00 | 0.00 | 93 | 1018.9 |
| 20260507092203 | 44 | 28 | 0.0 | 0.0 | 0.00 | 0.00 | 0.00 | 93 | 1018.6 |
| 20260507091659 | 44 | 25 | 0.0 | 0.0 | 0.00 | 0.00 | 0.00 | 94 | 1018.8 |
| 20260507091156 | 44 | 20 | 0.0 | 0.0 | 0.00 | 0.00 | 0.00 | 94 | 1018.8 |
| 20260507090651 | 43 | 23 | 0.0 | 0.0 | 0.00 | 0.00 | 0.00 | 94 | 1019.0 |
| 20260507090149 | 43 | 17 | 0.0 | 0.0 | 0.00 | 0.00 | 0.00 | 94 | 1019.0 |
| 20260507085645 | 43 | 11 | 0.0 | 0.0 | 0.00 | 0.00 | 0.00 | 95 | 1019.1 |
| 20260507085142 | 42 | 19 | 0.0 | 0.0 | 0.00 | 0.00 | 0.00 | 95 | 1019.0 |
| 20260507084639 | 42 | 26 | 0.0 | 0.0 | 0.00 | 0.00 | 0.00 | 95 | 1018.9 |
| 20260507084136 | 42 | 29 | 0.0 | 0.0 | 0.00 | 0.00 | 0.00 | 95 | 1019.0 |
| 20260507083633 | 41 | 27 | 0.0 | 0.0 | 0.00 | 0.00 | 0.00 | 95 | 1019.0 |
| 20260507083129 | 41 | 10 | 0.0 | 0.0 | 0.00 | 0.00 | 0.00 | 94 | 1019.1 |
| 20260507082625 | 41 | 10 | 0.0 | 0.0 | 0.00 | 0.00 | 0.00 | 94 | 1019.1 |
| 20260507082122 | 41 | 10 | 0.0 | 0.0 | 0.00 | 0.00 | 0.00 | 94 | 1019.1 |
| 20260507081618 | 41 | 10 | 0.0 | 0.0 | 0.00 | 0.00 | 0.00 | 94 | 1019.0 |
| 20260507081115 | 41 | 11 | 0.0 | 0.0 | 0.00 | 0.00 | 0.00 | 94 | 1019.1 |
| 20260507080611 | 41 | 16 | 0.0 | 0.0 | 0.00 | 0.00 | 0.00 | 94 | 1018.9 |
| 20260507080108 | 40 | 12 | 0.0 | 0.0 | 0.00 | 0.00 | 0.00 | 93 | 1019.2 |
| 20260507075603 | 41 | 12 | 0.0 | 0.0 | 0.00 | 0.00 | 0.00 | 93 | 1019.0 |
| 20260507075059 | 41 | 12 | 0.0 | 0.0 | 0.00 | 0.00 | 0.00 | 93 | 1019.0 |
| 20260507074556 | 41 | 12 | 0.0 | 0.0 | 0.00 | 0.00 | 0.00 | 92 | 1019.0 |
| 20260507074055 | 41 | 13 | 0.0 | 0.0 | 0.00 | 0.00 | 0.00 | 92 | 1018.8 |
| 20260507073550 | 41 | 13 | 0.0 | 0.0 | 0.00 | 0.00 | 0.00 | 92 | 1018.9 |
| 20260507073047 | 41 | 10 | 0.0 | 0.0 | 0.00 | 0.00 | 0.00 | 91 | 1019.1 |
| 20260507072545 | 42 | 9 | 0.0 | 0.0 | 0.00 | 0.00 | 0.00 | 91 | 1018.8 |
| 20260507072041 | 42 | 9 | 0.0 | 0.0 | 0.00 | 0.00 | 0.00 | 91 | 1019.1 |
| 20260507071539 | 42 | 9 | 0.0 | 0.0 | 0.00 | 0.00 | 0.00 | 91 | 1019.1 |
| 20260507071035 | 42 | 14 | 0.0 | 0.0 | 0.00 | 0.00 | 0.00 | 91 | 1019.2 |
| 20260507070533 | 42 | 18 | 0.0 | 0.0 | 0.00 | 0.00 | 0.00 | 91 | 1019.2 |
| 20260507070030 | 42 | 19 | 0.0 | 0.0 | 0.00 | 0.00 | 0.00 | 90 | 1019.3 |
| 20260507065526 | 42 | 20 | 0.0 | 0.0 | 0.00 | 0.00 | 0.00 | 90 | 1019.0 |
| 20260507065023 | 42 | 20 | 0.0 | 0.0 | 0.00 | 0.00 | 0.00 | 90 | 1019.2 |
| 20260507064521 | 41 | 18 | 0.0 | 0.0 | 0.00 | 0.00 | 0.00 | 89 | 1019.2 |
| 20260507064020 | 42 | 18 | 0.0 | 0.0 | 0.00 | 0.00 | 0.00 | 89 | 1019.1 |
| 20260507063516 | 42 | 18 | 0.0 | 0.0 | 0.00 | 0.00 | 0.00 | 89 | 1019.3 |
| 20260507063014 | 42 | 21 | 0.0 | 0.0 | 0.00 | 0.00 | 0.00 | 89 | 1019.3 |
| 20260507062510 | 42 | 16 | 0.0 | 0.0 | 0.00 | 0.00 | 0.00 | 89 | 1019.2 |
| 20260507062008 | 42 | 13 | 0.0 | 0.0 | 0.00 | 0.00 | 0.00 | 89 | 1019.6 |
| 20260507061505 | 42 | 11 | 0.0 | 0.0 | 0.00 | 0.00 | 0.00 | 89 | 1019.5 |
| 20260507061003 | 42 | 5 | 0.0 | 0.0 | 0.00 | 0.00 | 0.00 | 89 | 1019.5 |
| 20260507060500 | 42 | 4 | 0.0 | 0.0 | 0.00 | 0.00 | 0.00 | 89 | 1019.3 |
| 20260507055956 | 42 | 2 | 0.0 | 0.0 | 0.00 | 0.00 | 0.00 | 89 | 1019.5 |
| 20260507055452 | 42 | 14 | 0.0 | 0.0 | 0.00 | 0.00 | 0.00 | 88 | 1019.4 |
| 20260507054949 | 42 | 18 | 0.0 | 0.0 | 0.00 | 0.00 | 0.00 | 87 | 1019.4 |
| 20260507054445 | 43 | 18 | 0.0 | 0.0 | 0.00 | 0.00 | 0.00 | 86 | 1019.3 |
| 20260507053942 | 43 | 19 | 0.0 | 0.0 | 0.00 | 0.00 | 0.00 | 86 | 1019.4 |
| 20260507053440 | 43 | 19 | 0.0 | 0.0 | 0.00 | 0.00 | 0.00 | 85 | 1019.4 |
| 20260507052938 | 43 | 12 | 0.0 | 0.0 | 0.00 | 0.00 | 0.00 | 84 | 1019.2 |
| 20260507052435 | 44 | 12 | 0.0 | 0.0 | 0.00 | 0.00 | 0.00 | 84 | 1019.3 |
| 20260507051932 | 44 | 14 | 0.0 | 0.0 | 0.00 | 0.00 | 0.00 | 84 | 1019.2 |
| 20260507051430 | 44 | 25 | 0.0 | 0.0 | 0.00 | 0.00 | 0.00 | 84 | 1019.3 |
| 20260507050927 | 44 | 25 | 0.0 | 0.0 | 0.00 | 0.00 | 0.00 | 85 | 1019.4 |
| 20260507050423 | 44 | 20 | 0.0 | 0.0 | 0.00 | 0.00 | 0.00 | 85 | 1019.4 |
| 20260507045920 | 44 | 11 | 0.0 | 0.0 | 0.00 | 0.00 | 0.00 | 85 | 1019.4 |
| 20260507045416 | 44 | 10 | 0.0 | 0.0 | 0.00 | 0.00 | 0.00 | 85 | 1019.4 |
| 20260507044914 | 44 | 5 | 0.0 | 0.0 | 0.00 | 0.00 | 0.00 | 84 | 1019.4 |
| 20260507044410 | 44 | 10 | 0.0 | 0.0 | 0.00 | 0.00 | 0.00 | 82 | 1019.4 |
| 20260507043907 | 44 | 9 | 0.0 | 0.0 | 0.00 | 0.00 | 0.00 | 83 | 1019.6 |
| 20260507043403 | 44 | 9 | 0.0 | 0.0 | 0.00 | 0.00 | 0.00 | 82 | 1019.3 |
| 20260507042900 | 45 | 8 | 0.0 | 0.0 | 0.00 | 0.00 | 0.00 | 82 | 1019.2 |
| 20260507042356 | 45 | 359 | 0.0 | 0.0 | 0.00 | 0.00 | 0.00 | 81 | 1019.4 |
| 20260507041852 | 45 | 11 | 0.0 | 0.0 | 0.00 | 0.00 | 0.00 | 81 | 1019.3 |
| 20260507041349 | 45 | 12 | 0.0 | 0.0 | 0.00 | 0.00 | 0.00 | 80 | 1019.4 |
| 20260507040846 | 46 | 10 | 0.0 | 0.0 | 0.00 | 0.00 | 0.00 | 78 | 1019.3 |
| 20260507040342 | 46 | 15 | 0.0 | 0.0 | 0.00 | 0.00 | 0.00 | 76 | 1019.1 |
| 20260507035838 | 46 | 24 | 0.0 | 0.0 | 0.00 | 0.01 | 0.01 | 76 | 1019.2 |
| 20260507035333 | 47 | 20 | 0.0 | 0.0 | 0.00 | 0.01 | 0.01 | 74 | 1019.2 |
| 20260507034832 | 47 | 8 | 0.0 | 0.0 | 0.00 | 0.01 | 0.01 | 72 | 1019.1 |
| 20260507034328 | 48 | 6 | 0.0 | 0.0 | 0.00 | 0.01 | 0.01 | 70 | 1019.0 |
| 20260507033826 | 48 | 10 | 0.0 | 0.0 | 0.00 | 0.01 | 0.01 | 69 | 1019.0 |
| 20260507033324 | 48 | 11 | 0.0 | 0.0 | 0.00 | 0.01 | 0.01 | 69 | 1019.0 |
| 20260507032821 | 49 | 15 | 0.0 | 0.0 | 0.00 | 0.01 | 0.01 | 68 | 1019.0 |
| 20260507032317 | 49 | 10 | 0.0 | 0.0 | 0.00 | 0.01 | 0.01 | 67 | 1019.2 |
| 20260507031814 | 50 | 4 | 0.0 | 0.9 | 0.00 | 0.01 | 0.01 | 67 | 1018.8 |
| 20260507031310 | 50 | 0 | 0.9 | 0.9 | 0.00 | 0.01 | 0.01 | 67 | 1019.0 |
| 20260507030806 | 50 | 7 | 0.9 | 0.9 | 0.00 | 0.01 | 0.01 | 67 | 1019.1 |
| 20260507030305 | 49 | 8 | 0.0 | 0.0 | 0.00 | 0.01 | 0.01 | 69 | 1018.9 |
| 20260507025801 | 49 | 8 | 0.0 | 0.9 | 0.00 | 0.01 | 0.01 | 71 | 1019.0 |
| 20260507025258 | 48 | 11 | 0.0 | 0.9 | 0.00 | 0.01 | 0.01 | 73 | 1019.0 |
| 20260507024756 | 47 | 14 | 0.0 | 0.0 | 0.00 | 0.01 | 0.01 | 73 | 1018.9 |
| 20260507024253 | 48 | 9 | 0.0 | 0.0 | 0.00 | 0.01 | 0.01 | 76 | 1018.8 |
| 20260507023749 | 48 | 12 | 0.0 | 0.0 | 0.00 | 0.01 | 0.01 | 74 | 1019.0 |
| 20260507023246 | 49 | 13 | 0.0 | 0.0 | 0.00 | 0.01 | 0.01 | 69 | 1018.7 |
| 20260507022743 | 49 | 13 | 0.0 | 0.0 | 0.00 | 0.01 | 0.01 | 67 | 1018.6 |
| 20260507022239 | 50 | 13 | 0.0 | 0.0 | 0.00 | 0.01 | 0.01 | 65 | 1018.8 |
| 20260507021736 | 51 | 13 | 0.0 | 0.0 | 0.00 | 0.01 | 0.01 | 63 | 1018.5 |
| 20260507021231 | 51 | 13 | 0.0 | 0.0 | 0.00 | 0.01 | 0.01 | 61 | 1018.4 |
| 20260507020730 | 52 | 12 | 0.0 | 0.0 | 0.00 | 0.01 | 0.01 | 60 | 1018.6 |
| 20260507020226 | 53 | 12 | 0.0 | 0.0 | 0.00 | 0.01 | 0.01 | 59 | 1018.4 |
| 20260507015723 | 53 | 11 | 0.0 | 0.9 | 0.00 | 0.01 | 0.01 | 58 | 1018.4 |
| 20260507015221 | 53 | 12 | 0.0 | 0.0 | 0.00 | 0.01 | 0.01 | 58 | 1018.3 |
| 20260507014717 | 54 | 9 | 0.9 | 0.9 | 0.00 | 0.01 | 0.01 | 58 | 1018.2 |
| 20260507014214 | 54 | 12 | 0.0 | 0.9 | 0.00 | 0.01 | 0.01 | 56 | 1018.1 |
| 20260507013710 | 54 | 1 | 0.9 | 0.9 | 0.00 | 0.01 | 0.01 | 55 | 1018.1 |
| 20260507013208 | 55 | 15 | 1.7 | 1.7 | 0.00 | 0.01 | 0.01 | 54 | 1018.1 |
| 20260507012705 | 55 | 9 | 1.7 | 2.6 | 0.00 | 0.01 | 0.01 | 53 | 1018.1 |
| 20260507012200 | 56 | 11 | 1.7 | 1.7 | 0.00 | 0.01 | 0.01 | 53 | 1017.9 |
| 20260507011658 | 56 | 20 | 0.9 | 1.7 | 0.00 | 0.01 | 0.01 | 51 | 1017.9 |
| 20260507011154 | 56 | 358 | 1.7 | 1.7 | 0.00 | 0.01 | 0.01 | 56 | 1017.8 |
| 20260507010649 | 57 | 6 | 0.9 | 0.9 | 0.00 | 0.01 | 0.01 | 53 | 1017.5 |
| 20260507010145 | 57 | 19 | 0.9 | 0.9 | 0.00 | 0.01 | 0.01 | 48 | 1017.5 |
| 20260507005643 | 58 | 27 | 0.9 | 1.7 | 0.00 | 0.01 | 0.01 | 48 | 1017.5 |
| 20260507005139 | 58 | 26 | 0.0 | 0.9 | 0.00 | 0.01 | 0.01 | 46 | 1017.5 |
| 20260507004636 | 58 | 19 | 1.7 | 1.7 | 0.00 | 0.01 | 0.01 | 46 | 1017.6 |
| 20260507004134 | 59 | 15 | 0.9 | 1.7 | 0.00 | 0.01 | 0.01 | 45 | 1017.6 |
| 20260507003630 | 59 | 346 | 0.9 | 1.7 | 0.00 | 0.01 | 0.01 | 45 | 1017.4 |
| 20260507003124 | 59 | 12 | 3.5 | 3.5 | 0.00 | 0.01 | 0.01 | 44 | 1017.5 |